Bellingham, WA
on Saturday, February 23, 2013

Saturday
Previous Day Next Day
Daily Summary
 ActualAverageRecord
Temperature
Mean Temperature °F 41°F  
Max Temperature 53°F 49°F 62°F (1983)
Min Temperature 42°F 34°F 22°F (1952)
Degree Days
Heating Degree Days 18 24  
Month to date heating degree days 563  
Cooling Degree Days 0 0  
Month to date cooling degree days 0  
Year to date cooling degree days 0  
Moisture
Dew Point 36°F   
Average Humidity 65    
Maximum Humidity 80    
Minimum Humidity 49    
Precipitation
Precipitation 0.00 in 0.11 in 1.55 in (1986)
Month to date precipitation 2.51  
Year to date precipitation 7.18  
Wind
Wind Speed 6 mph   
Max Wind Speed 12 mph   
Max Gust Speed 18 mph   
Visibility 10 miles   
Events     

Key: T is trace of precipitation, MM is missing value
Source: NWS Daily Summary
Time(PST)TemperatureDew PointHumidity Pressure Visibility Wind DirectionWind SpeedGust SpeedPrecipitationEvents Conditions
12:53 AM 44.1°F 36.0°F 73% 29.88 in 10.0 miles SSE 8.1 mph - N/A   Mostly Cloudy
1:53 AM 45.0°F 36.0°F 71% 29.90 in 10.0 miles South 5.8 mph - N/A   Mostly Cloudy
2:53 AM 45.0°F 36.0°F 71% 29.91 in 10.0 miles South 8.1 mph - N/A   Mostly Cloudy
3:53 AM 45.0°F 37.0°F 74% 29.93 in 10.0 miles South 11.5 mph 18.4 mph N/A   Mostly Cloudy
4:31 AM 44.6°F 35.6°F 71% 29.91 in 10.0 miles SSE 9.2 mph - N/A   Mostly Cloudy
4:53 AM 44.1°F 37.0°F 76% 29.95 in 10.0 miles SSE 8.1 mph 18.4 mph N/A   Overcast
5:53 AM 42.1°F 35.1°F 76% 29.98 in 10.0 miles SE 6.9 mph - N/A   Scattered Clouds
6:53 AM 42.1°F 35.1°F 76% 30.03 in 10.0 miles SE 5.8 mph - N/A   Overcast
7:53 AM 44.1°F 36.0°F 73% 30.06 in 10.0 miles South 3.5 mph - N/A   Overcast
8:53 AM 46.0°F 36.0°F 68% 30.10 in 10.0 miles South 4.6 mph - N/A   Overcast
9:53 AM 48.0°F 37.0°F 66% 30.13 in 10.0 miles South 4.6 mph - N/A   Overcast
10:53 AM 48.9°F 36.0°F 61% 30.16 in 10.0 miles Variable 4.6 mph - N/A   Overcast
11:53 AM 50.0°F 35.1°F 57% 30.19 in 10.0 miles Variable 4.6 mph - N/A   Mostly Cloudy
12:53 PM 52.0°F 33.1°F 49% 30.20 in 10.0 miles Variable 4.6 mph - N/A   Partly Cloudy
1:53 PM 53.1°F 35.1°F 50% 30.21 in 10.0 miles SE 4.6 mph - N/A   Clear
2:53 PM 52.0°F 35.1°F 53% 30.24 in 10.0 miles South 5.8 mph - N/A   Overcast
3:13 PM 51.8°F 35.6°F 54% 30.22 in 10.0 miles Calm Calm - N/A   Overcast
3:30 PM 51.8°F 35.6°F 54% 30.22 in 10.0 miles Calm Calm - N/A   Overcast
3:50 PM 51.8°F 35.6°F 54% 30.22 in 10.0 miles Variable 3.5 mph - N/A   Overcast
3:53 PM 52.0°F 35.1°F 53% 30.25 in 10.0 miles Calm Calm - N/A   Overcast
4:53 PM 50.0°F 34.0°F 54% 30.27 in 10.0 miles Calm Calm - N/A   Overcast
5:00 PM 50.0°F 33.8°F 54% 30.24 in 10.0 miles Calm Calm - N/A   Overcast
5:53 PM 48.0°F 36.0°F 63% 30.28 in 10.0 miles Calm Calm - N/A   Overcast
6:53 PM 46.0°F 35.1°F 66% 30.30 in 10.0 miles Calm Calm - N/A   Overcast
7:53 PM 44.1°F 36.0°F 73% 30.32 in 10.0 miles Calm Calm - N/A   Overcast
8:53 PM 45.0°F 39.0°F 80% 30.32 in 10.0 miles ESE 4.6 mph - 0.00 in   Overcast
9:53 PM 46.0°F 37.0°F 71% 30.33 in 10.0 miles SE 6.9 mph - N/A   Overcast
10:53 PM 46.0°F 37.0°F 71% 30.34 in 10.0 miles SSE 5.8 mph - N/A   Overcast
11:53 PM 46.0°F 37.0°F 71% 30.35 in 10.0 miles SSE 6.9 mph - N/A   Overcast
Moon Phase
Feb. 23 Feb. 25 Mar. 04 Mar. 11 Mar. 19
Sunrise:07:02 AM (PST) Moon Rise:03:56 PM (PST)2/23
Sunset:05:44 PM (PST) Moon Set:05:35 AM (PST)2/23

Copyright © 2014 The Weather Underground, Inc.